Location: Arbon
(43.0005°N, 0.7472°E)
Time: 22:04:45
(UTC+00:00)

Altair - Pass Details

Date: 27 November 2020
Orbit: 1501 x 1682 km, 47.2° (Epoch: 26 January)

Event Time Altitude Azimuth Distance (km) Brightness Sun altitude
Rises 01:36:05 0° 290° (WNW) 4,645 - -58.1°
Reaches altitude 10° 01:39:07 10° 291° (WNW) 3,657 - -57.7°
Maximum altitude 01:48:19 86° 20° (NNE) 1,514 - -56.3°
Exits shadow 01:56:35 14° 111° (ESE) 3,354 9.4 -54.9°
Drops below altitude 10° 01:57:39 10° 111° (ESE) 3,698 9.7 -54.8°
Sets 02:00:43 0° 112° (ESE) 4,699 10.4 -54.3°
